Location: Barcelona
(41.3830°N, 2.1830°E)
Time: 00:27:05
(UTC+02:00)

ISS - Pass Details

Date: 19 July 2019
Orbit: 409 x 418 km, 51.6° (Epoch: 22 July)

Event Time Altitude Azimuth Distance (km) Brightness Sun altitude
Rises 02:15:04 0° 306° (NW) 2,350 0.4 -27.6°
Reaches altitude 10° 02:17:49 10° 330° (NNW) 1,485 -0.3 -27.5°
Maximum altitude 02:19:53 15° 8° (N) 1,205 -0.6 -27.5°
Drops below altitude 10° 02:21:56 10° 47° (NE) 1,481 -0.4 -27.4°
Sets 02:24:40 0° 71° (ENE) 2,340 0.4 -27.4°
